Flag for U.S.A. Weather past 2 weeks in Wainwright, Alaska, U.S.A.

Now
19 °F

Overcast.


Feels Like: 8 °F
Forecast: -10 / 25 °F
Wind: 9 mph from Southeast

Location: Wainwright Distant Early Warning

Current Time: Feb 28, 2015 at 3:47:54 AM

Latest Report: Feb 28, 2015 at 2:53 AM


Visibility: 10 mi

Pressure: 29.74 "Hg

Humidity: 85%

Dew point: 15 °F

Location of WainwrightLocation

Historic Weather in Wainwright — Graph

°F

Wainwright temperature yesterday

Maximum temperature yesterday: 13 °F (at 11:53 PM)
Minimum temperature yesterday: 3 °F (at 1:53 PM)
Average temperature yesterday: 6 °F

Past Weeks' High & Low Weather Summary

 TemperatureHumidityPressure
High28 °F (Feb 26, 7:53 AM)96% (Feb 26, 1:53 AM)30.59 "Hg (Feb 26, 1:53 AM)
Low-33 °F (Feb 13, 5:53 PM)64% (Feb 13, 12:53 PM)29.58 "Hg (Feb 18, 7:53 AM)
Average-2 °F79%30.01 "Hg
* Reported Feb 13 2:53 AM — Feb 28 2:53 AM, Wainwright, Weather by CustomWeather, © 2015

Note: Actual official high and low records may vary slightly from our data, if they occured in-between our weather recording intervals... More about our weather records

Advertising

Wainwright weather history for previous 24 hours

 ConditionsComfort  
Time TempWeatherWind HumidityBarometerVisibility
2:53 AM
Sat, Feb 28
19 °FOvercast.9 mph85%29.74 "Hg10 mi
1:53 AM17 °FOvercast.7 mph83%29.76 "Hg10 mi
12:53 AM15 °FOvercast.8 mph87%29.78 "Hg10 mi
11:53 PM
Fri, Feb 27
13 °FOvercast.12 mph81%29.80 "Hg10 mi
10:53 PM10 °FOvercast.14 mph84%29.84 "Hg9 mi
9:53 PM8 °FLight snow. Overcast.17 mph79%29.88 "Hg2 mi
8:53 PM7 °FLight snow. Mostly cloudy.16 mph76%29.92 "Hg4 mi
7:53 PM6 °FLight snow. Overcast.13 mph76%29.98 "Hg9 mi
6:53 PM5 °FLight snow. Mostly cloudy.13 mph76%30.01 "Hg6 mi
5:53 PM4 °FLight snow. Overcast.10 mph76%30.05 "Hg1 mi
4:53 PM4 °FOvercast.9 mph73%30.09 "Hg10 mi
3:53 PM4 °FOvercast.No wind73%30.11 "Hg10 mi
2:53 PM3 °FOvercast.3 mph72%30.13 "Hg10 mi
1:53 PM3 °FPartly sunny.6 mph79%30.14 "Hg10 mi
12:53 PM4 °FPassing clouds.12 mph76%30.15 "Hg10 mi
11:53 AM4 °FSunny.10 mph80%30.14 "Hg10 mi
10:53 AM5 °FSunny.15 mph80%30.11 "Hg10 mi
9:53 AM5 °FSunny.14 mph80%30.09 "Hg10 mi
Weather by CustomWeather, © 2015

See weather overviewHow to use our weather pages